Location: Arboyeti
(42.1122°N, 44.6017°E)
Time: 16:58:09
(UTC+00:00)

Cosmos 2263 Rocket - Pass Details

Date: 19 April 2021
Orbit: 824 x 848 km, 71.0° (Epoch: 07 May)

Event Time Altitude Azimuth Distance (km) Brightness Sun altitude
Exits shadow 21:25:55 20° 312° (NW) 1,848 4.2 -36.1°
Drops below altitude 10° 21:29:45 10° 356° (N) 2,435 5.3 -36.0°
Sets 21:32:54 0° 14° (NNE) 3,374 6.3 -35.9°
